軌道要素
Epoch 2015 Feb. 27.0 TT = JDT 2457080.5
T 2015 Feb. 27.64837 TT MPCW
q 2.0025894 (2000.0) P Q
z -0.0002182 Peri. 292.26357 +0.44932383 +0.75645614
+/-0.0000009 Node 330.49320 +0.37790985 -0.64299734
e 1.0004369 Incl. 105.21145 -0.80950123 +0.11970179
From 365 observations 2014 Jan. 4-2015 Sept. 20, mean residual 0".6.
|